Location: Ash Swamp
(41.5170°N, 74.6157°W)
Time: 15:50:28
(UTC+00:00)

Cosmos 1825 - Pass Details

Date: 14 July 2020
Orbit: 503 x 508 km, 82.5° (Epoch: 04 August)

Event Time Altitude Azimuth Distance (km) Brightness Sun altitude
Exits shadow 01:51:07 13° 94° (E) 1,532 4.1 -12.6°
Maximum altitude 01:51:35 13° 86° (E) 1,520 4.2 -12.7°
Drops below altitude 10° 01:53:29 10° 56° (NE) 1,731 4.7 -12.9°
Sets 01:56:30 0° 29° (NNE) 2,623 6.0 -13.3°
